www.pogodaiklimat.ru

Погода и климат >> Архив погоды >> Россия >> Красноярский край >> Нижнеусинское


ПОГОДА в Нижнеусинском

  • Прогноз погоды в Нижнеусинском
  • Монитор погоды в Нижнеусинском

АРХИВ ПОГОДЫ в Нижнеусинском

Время (UTC), дата Ветер
(напр.,м/с)
 
Видим.   Явления Облачность Т
(С)
Тd
(С)
f
(%)
Тe
(С)
Тes
(С)
Комфортность P
(гПа)
Po
(гПа)
Тmin
(С)
Tmax
(С)
R
(мм)
R24
(мм)
S
(см)
21 16.05 СЗ 1 20 км 6/4 1000 м
[Sc Ac trans Ci sp]
-4.7 -6.0 91 -7 -7 1024.2 942.2
00 17.05 штиль 0 50 км 8/3 1000 м
[Sc Ac trans Ci sp]
-1.8 -4.9 79 -3 -2 1022.4 941.4 -5.8
03 17.05 штиль 0 50 км 9/6 1000 м
[Cb cap Ac trans Ci sp]
+4.5 -4.0 54 +4 +8 1021.6 942.4
06 17.05 З 4 20 км осадки на расстоянии {ливн. осадки} 10/10 600 м
[Cb cap]
+2.3 +1.3 93 -3 -3 1021.9 942.1
09 17.05 С 3 20 км осадки на расстоянии 8/8 600 м
[Cb cap]
+6.3 -1.5 57 +4 +5 1020.2 941.6
12 17.05 ЮЗ 3 50 км {ливн. осадки} 8/8 1000 м
[Cb cap]
+7.1 -2.1 52 +5 +5 1020.8 942.4 +7.1 0.5
15 17.05 штиль 0 20 км 6/6 1000 м
[Sc]
+1.3 -5.2 62 +1 +1 1025.0 944.6
18 17.05 штиль 0 н/о ясно -4.7 -5.6 93 -6 -6 1028.4 946.1
21 17.05 штиль 0 20 км ясно -6.8 -7.3 96 -8 -8 1030.2 947.1
00 18.05 штиль 0 50 км ясно -3.2 -4.6 90 -4 -2 1030.7 948.6 -8.0
03 18.05 штиль 0 50 км 4/4 1000 м
[Sc]
+7.1 -3.1 48 +7 +16 опасность
простуды
1026.0 947.2
06 18.05 З 2 50 км 6/4 1000 м
[Sc Ac trans Ci sp]
+12.6 -7.4 24 +12 +20 1021.0 943.9
09 18.05 С 2 50 км 6/6 1000 м
[Sc]
+14.9 -10.2 17 +15 +19 1017.5 941.3
12 18.05 ЮЗ 3 50 км 6/6 1000 м
[Sc]
+14.3 -10.0 18 +14 +14 1017.2 940.8 +15.7
15 18.05 штиль 0 20 км 8/8 1000 м
[Sc]
+7.1 -5.5 40 +7 +7 1019.1 940.8
18 18.05 штиль 0 н/о 4/4 1000 м
[Sc]
-0.6 -6.7 63 -1 -1 1021.8 941.2
21 18.05 штиль 0 20 км 3/3 1000 м
[Sc]
-3.0 -6.4 77 -4 -4 1023.3 941.9
00 19.05 штиль 0 50 км 4/4 1000 м
[Sc]
-0.3 -6.5 63 -1 +1 1023.4 942.7 -3.1
03 19.05 ЮЗ 1 50 км 8/0
[Ci sp]
+12.3 -7.6 24 +13 +24 опасность
простуды
1017.4 940.5
06 19.05 ЮЗ 1 50 км 9/0
[Ci sp]
+20.2 -4.4 19 +21 +37 комфорт 1011.9 937.4
09 19.05 СЗ 2 50 км 3/0
[Ci sp]
+24.0 -3.0 16 +22 +31 комфорт 1007.5 934.3
12 19.05 Ю 2 50 км 8/1 1000 м
[Sc Ac trans Ci sp]
+23.0 -2.7 18 +22 +22 комфорт 1006.4 933.0 +24.8
15 19.05 штиль 0 20 км 9/4 1000 м
[Sc Ac trans Ci sp]
+11.2 -0.1 46 +11 +11 1011.7 935.0
18 19.05 штиль 0 н/о ясно +4.1 -1.1 69 +3 +3 1015.1 936.4
21 19.05 штиль 0 20 км ясно -0.6 -3.0 84 -2 -2 1017.5 937.2
00 20.05 штиль 0 50 км 3/0
[Ci sp]
+4.7 -2.3 60 +4 +7 1016.1 937.4 -1.9
03 20.05 штиль 0 50 км 6/6 1000 м
[Sc]
+16.1 -1.9 29 +16 +22 1011.5 936.1
06 20.05 штиль 0 50 км 9/9 1000 м
[Cb cap]
+21.8 -1.1 22 +21 +23 комфорт 1006.9 933.2
09 20.05 СЗ 3 50 км 10/10 1000 м
[Cb cap]
+24.8 +0.2 20 +23 +23 комфорт 1005.0 932.2
12 20.05 штиль 0 50 км 4/4 1000 м
[Sc]
+24.5 +1.5 22 +23 +24 комфорт 1004.6 931.8 +24.8
15 20.05 Ю 1 20 км 6/6 1000 м
[Sc]
+14.6 +3.1 46 +15 +15 1007.4 932.0
18 20.05 штиль 0 н/о 6/0
[Ci sp]
+5.8 +2.1 77 +5 +5 1010.0 932.1
21 20.05 штиль 0 20 км ясно +3.5 +1.7 88 +2 +2 1009.7 931.2
00 21.05 штиль 0 50 км 9/8 1000 м
[Cb cap Ac trans Ci sp]
+6.0 +3.1 82 +5 +6 1007.9 930.2 +2.4
03 21.05 штиль 0 50 км 9/6 1000 м
[Cb cap Ac trans Ci sp]
+12.9 +4.3 56 +13 +16 1005.4 929.7
06 21.05 В 1 50 км 8/4 1000 м
[Sc Ci sp]
+23.1 +4.3 29 +23 +33 комфорт 999.8 927.0
09 21.05 З 2 50 км 9/9 1000 м
[Sc]
+26.2 +3.1 22 +25 +26 комфорт 995.4 923.6
12 21.05 штиль 0 50 км 9/9 1000 м
[Cb cap]
+25.6 +3.6 24 +25 +25 комфорт 993.4 921.6 +26.2
15 21.05 СЗ 9-13
{14}
20 км 10/10 1000 м
[Cb cap]
+15.3 +6.7 56 +13 +13 1002.7 927.9
18 21.05 штиль 0 н/о слаб. ливневой дождь 10/10 600 м
[Cb cap]
+10.6 +9.0 90 +10 +10 1005.5 929.4
21 21.05 штиль 0 20 км {ливн. осадки} 10/10 1000 м
[Cb cap]
+8.3 +7.7 96 +7 +7 1006.5 929.6
00 22.05 штиль 0 4000 м дымка {ливн. осадки} 6/6 600 м
[Sc]
+8.1 +7.1 93 +7 +8 1008.1 930.8 +8.0 2
03 22.05 штиль 0 50 км 9/6 1000 м
[Cb cap Ac trans Ci sp]
+14.9 +9.7 71 +15 +18 1005.5 930.4
06 22.05 СЗ 6
{13}
50 км 9/8 1000 м
[Cb cap Ac trans Ci sp]
+13.5 +3.0 49 +12 +13 1007.0 931.4
09 22.05 СЗ 5
{10}
50 км 4/4 1000 м
[Sc]
+17.4 +1.2 34 +17 +20 1003.6 929.2
12 22.05 СЗ 4 50 км 4/4 1000 м
[Sc]
+17.1 +0.3 32 +17 +17 1001.3 926.9 +18.1
15 22.05 С 3 20 км 9/9 1000 м
[Cb cap]
+13.3 +3.0 50 +12 +12 1001.4 926.5
18 22.05 СЗ 1 н/о 10/10 1000 м
[Cb cap]
+8.9 +5.6 80 +8 +8 999.9 923.6
21 22.05 ЮЗ 3 20 км {ливн. осадки} 10/10 1000 м
[Cb cap]
+8.7 +4.9 77 +6 +6 1002.8 926.3
00 23.05 З 4
{11}
50 км {ливн. осадки} 6/6 1000 м
[Cb cap]
+9.7 +2.2 60 +7 +8 1008.6 931.6 +7.8 0.3
03 23.05 З 4
{10}
50 км 6/6 1000 м
[Cb cap]
+12.2 +0.1 43 +11 +14 1011.6 935.2
06 23.05 С 4
{12}
50 км 6/6 1000 м
[Cb cap]
+14.0 -1.9 33 +13 +17 1010.7 934.8
09 23.05 СЗ 7
{13}
50 км 9/8 1000 м
[Cb cap Ci sp]
+13.6 -3.0 31 +12 +12 1010.7 934.7
12 23.05 СЗ 5
{11}
50 км 9/9 1000 м
[Cb cap]
+12.8 -2.5 34 +11 +11 1012.1 935.8 +15.2
15 23.05 З 1 20 км 10/10 1000 м
[Cb cap]
+9.4 -0.4 50 +9 +9 1015.1 937.7
18 23.05 штиль 0 н/о 6/6 1000 м
[Sc]
+6.2 -1.3 59 +6 +6 1017.5 939.1

 

Местоположение метеостанции Нижнеусинское (Красноярский край, Россия): широта 52.27 долгота 93.02 высота над уровнем моря 662 м.

В архиве по умолчанию представлена погода в Нижнеусинском за последнюю неделю. Архивные данные за месяц целиком и за предыдущие месяцы, начиная с января 2011 года, Вы можете получить, выбрав интересующий диапазон дат из раскрывающегося списка и нажав кнопку "Ввод!".


*Определитесь, кто Вы:
робот инопланетянин человек

Внимание! Время в таблицах - всемирное. Для получения местного времени необходимо прибавить поправку, которая равна 7 ч.

Смотрите также архив погоды в соседних городах и на ближайших метеорологических станциях:

Погода в Оленьей Речке (Красноярский край, Россия) (61 км)
Погода в Туране (Тува, Россия) (63 км)
Погода в Усть-Усе (Красноярский край, Россия) (65 км)
Погода в Шагонаре (Тува, Россия) (97 км)
Погода в Кызыле (Тува, Россия) (118 км)
Погода в Ермаковском (Красноярский край, Россия) (121 км)
Погода в Черемушках (Хакасия, Россия) (127 км)
Погода в Карловом Створе (Хакасия, Россия) (128 км)
Погода в Хову-Аксы (Тува, Россия) (140 км)
Погода в Саяногорске (Хакасия, Россия) (141 км)

Пояснения к столбцам:

Ветер - указаны скорость ветра в м/с - средняя за 10 мин, порывы в срок и между сроками (в фигурных скобках) и направление, откуда дует ветер: С - северный, СВ - северо-восточный, В - восточный, ЮВ - юго-восточный, Ю - южный, ЮЗ - юго-западный, З - западный, СЗ - северо-западный.
Видимость - горизонтальная дальность видимости в метрах или километрах. При видимости от 1 до 10 км при отсутствии осадков обычно наблюдается дымка, при ухудшении видимости до 1 км и менее - туман. В сухую погоду видимость может ухудшаться дымом, пылью или мглою.
Явления - указаны атмосферные явления, наблюдавшиеся в срок или в последний час перед сроком; фигурными скобками обозначены явления, наблюдавшиеся между сроками (за 1-3 часа до срока); квадратными скобками обозначены град или гололедные отложения с указанием их диаметра в мм.
Облачность - указаны через наклонную черту общая и нижняя облачность в баллах и высота нижней границы облаков в метрах; квадратными скобками обозначены формы облаков: Ci - перистые, Cs - перисто-слоистые, Cc - перисто-кучевые, Ac - высококучевые, As - высокослоистые, Sc - слоисто-кучевые, Ns - слоисто-дождевые, Cu - кучевые, Cb - кучево-дождевые. Подробнее классификацию облаков см. в Атласе облаков (PDF).
T - Температура воздуха - температура, измеренная на высоте 2 м над землей.
Td - Температура точки росы - температура, при понижении до которой содержащийся в воздухе водяной пар достигнет насыщения.
f - Относительная влажность воздуха - влажноcть воздуха, измеренная на высоте 2 м над землей.
Te - Эффективная температура - температура, которую ощущает одетый по сезону человек в тени. Характеристика душности погоды. При расчете учитывается влияние влажности воздуха и скорости ветра на теплоощущения человека.
Tes - Эффективная температура на солнце - температура, которую ощущает человек, с поправкой на солнечный нагрев. Характеристика знойности погоды. Зависит от высоты солнца над горизонтом, облачности и скорости ветра. Ночью, в пасмурную погоду, а также при ветре 12 м/с и более поправка равна нулю.
P - Атмосферное давление - приведенное к уровню моря атмосферное давление.
Po - Атмосферное давление - измеренное на уровне метеостанции атмосферное давление.
Tmin - Минимальная температура - минимум температуры воздуха на высоте 2 м над землей.
Tmax - Максимальная температура - максимум температуры воздуха на высоте 2 м над землей.
R - Количество осадков - Количество выпавших осадков за период времени, мм. При наведении курсора мыши на число - период времени, за который выпало указанное количество осадков.
R24 - Количество осадков - Количество выпавших осадков за 24 часа, мм.
S - Снежный покров - Высота снежного покрова, см. При наведении курсора мыши на число - состояние снежного покрова и степень покрытия местности в баллах.